• MPC Preparation (Info)

  • MPEC 2016-O85 : 2014 KT101

    The following Minor Planet Electronic Circular may be linked-to from your own Web pages, but must not otherwise be redistributed electronically.

    A form allowing access to any MPEC is at the bottom of this page.


    Read MPEC 2016-O84 Read MPEC 2016-O86


    M.P.E.C. 2016-O85                                Issued 2016 July 17, 01:56 UT
    
         The Minor Planet Electronic Circulars contain information on unusual
             minor planets and routine data on comets.  They are published
        on behalf of Division F of the International Astronomical Union by the
              Minor Planet Center, Smithsonian Astrophysical Observatory,
                              Cambridge, MA 02138, U.S.A.
    
                 Prepared using the Tamkin Foundation Computer Network
    
                                  MPC@CFA.HARVARD.EDU
                URL https://www.minorplanetcenter.net/    ISSN 1523-6714
    
                                      2014 KT101
    
    Observations:
         K14KA1T  C2013 06 07.40883 16 19 33.620-21 33 17.62         21.9 wLEO085F51
         K14KA1T  C2013 06 07.43932 16 19 33.413-21 33 17.24         22.1 wLEO085F51
         K14KA1T  C2013 06 07.45342 16 19 33.332-21 33 17.04         21.8 wLEO085F51
         K14KA1T* C2014 05 21.43873 16 30 26.023-22 20 03.79         21.8 wLEO085F51
         K14KA1T  C2014 05 21.45183 16 30 25.937-22 20 03.70         21.8 wLEO085F51
         K14KA1T  C2014 05 21.46491 16 30 25.863-22 20 03.44         21.8 wLEO085F51
         K14KA1T  C2014 05 21.47799 16 30 25.774-22 20 03.42         22.0 wLEO085F51
         K14KA1T  C2014 05 28.43212 16 29 41.271-22 18 55.72         21.8 wLEO085F51
         K14KA1T  C2014 05 28.44273 16 29 41.199-22 18 55.58         21.9 wLEO085F51
         K14KA1T  C2014 05 28.45335 16 29 41.128-22 18 55.53         21.9 wLEO085F51
         K14KA1T  C2014 05 28.46396 16 29 41.064-22 18 55.41         21.8 wLEO085F51
         K14KA1T  C2014 06 28.33478 16 26 31.424-22 13 53.86         21.8 wLEO085F51
         K14KA1T  C2014 06 28.34536 16 26 31.365-22 13 53.62         21.8 wLEO085F51
         K14KA1T  C2014 06 28.35595 16 26 31.295-22 13 53.57         21.9 wLEO085F51
         K14KA1T  C2014 06 28.36654 16 26 31.244-22 13 53.50         21.8 wLEO085F51
         K14KA1T  C2014 07 25.31303 16 24 33.426-22 10 53.80         21.8 wLEO085F51
         K14KA1T  C2014 07 25.32373 16 24 33.401-22 10 53.77         22.2 wLEO085F51
         K14KA1T  C2014 07 25.33436 16 24 33.360-22 10 53.70         22.2 wLEO085F51
         K14KA1T  C2014 07 25.34502 16 24 33.325-22 10 53.40         22.5 wLEO085F51
         K14KA1T  C2014 08 22.25286 16 23 54.257-22 10 42.57         22.0 wLEO085F51
         K14KA1T  C2014 08 22.26456 16 23 54.252-22 10 42.64         21.9 wLEO085F51
         K14KA1T  C2014 08 22.27622 16 23 54.270-22 10 42.63         22.2 wLEO085F51
         K14KA1T  C2014 08 22.28788 16 23 54.272-22 10 42.50         21.9 wLEO085F51
         K14KA1T  C2015 05 20.44081 16 39 46.133-23 02 07.77         21.8 wLEO085F51
         K14KA1T  C2015 05 20.45293 16 39 46.074-23 02 07.32         21.6 wLEO085F51
         K14KA1T  C2015 05 20.46505 16 39 46.010-23 02 07.64         21.9 wLEO085F51
         K14KA1T  C2015 05 20.47714 16 39 45.916-23 02 07.27         22.1 wLEO085F51
         K14KA1T  C2015 07 09.35322 16 34 43.073-22 55 07.87         22.1 wLEO085F51
         K14KA1T  C2015 07 09.36504 16 34 43.000-22 55 07.68         22.1 wLEO085F51
         K14KA1T  C2015 07 09.37695 16 34 42.959-22 55 07.79         22.0 wLEO085F51
         K14KA1T  C2015 07 09.38873 16 34 42.899-22 55 07.66         22.2 wLEO085F51
         K14KA1T  C2015 07 12.35611 16 34 28.779-22 54 47.13         22.1 wLEO085F51
         K14KA1T  C2015 07 12.36787 16 34 28.720-22 54 47.03         22.4 wLEO085F51
         K14KA1T  C2015 07 12.37877 16 34 28.667-22 54 47.00         22.0 wLEO085F51
         K14KA1T  C2015 07 12.39058 16 34 28.625-22 54 46.94         22.1 wLEO085F51
         K14KA1T  C2015 07 13.30019 16 34 24.440-22 54 40.73         21.7 wLEO085F51
         K14KA1T  C2015 07 13.32223 16 34 24.353-22 54 40.85         22.1 wLEO085F51
         K14KA1T  C2015 07 13.33285 16 34 24.303-22 54 40.44         22.3 wLEO085F51
         K14KA1T  C2015 07 14.29773 16 34 19.956-22 54 34.39         21.9 wLEO085F51
         K14KA1T  C2015 07 14.30745 16 34 19.914-22 54 34.42         21.8 wLEO085F51
         K14KA1T  C2015 07 14.31896 16 34 19.870-22 54 34.32         22.0 wLEO085F51
    
    Observer details:
    F51 Pan-STARRS 1, Haleakala.  Observers B. Gibson, T. Goggia, N. Primak,
        A. Schultz, M. Willman.  Measurers K. Chambers, S. Chastel, Y.-T. Chen,
        L. Denneau, H. Flewelling, M. Holman, M. Huber, R. Jedicke, M. Lackner,
        E. Lilly, H.-W. Lin, E. Magnier, M. Micheli, M. Payne, P. Veres,
        R. Wainscoat, C. Waters, R. Weryk.  1.8-m Ritchey-Chretien + CCD.
    
    Orbital elements:
    2014 KT101
    Epoch 2016 July 31.0 TT = JDT 2457600.5                 MPC
    M 349.22044              (2000.0)            P               Q
    n   0.00358406     Peri.  205.75712     +0.03154110     +0.98692048
    a  42.2881749      Node    66.39269     -0.88461881     +0.10118946
    e   0.2460762      Incl.    9.93501     -0.46524694     -0.12549367
    P 275              H    6.7           G   0.15           U   3
    Residuals in seconds of arc
    130607 F51  0.1+  0.0     140628 F51  0.1+  0.2-    150709 F51  0.2-  0.1+
    130607 F51  0.1-  0.0     140725 F51  0.3-  0.1-    150709 F51  0.0   0.1-
    130607 F51  0.0   0.0     140725 F51  0.2-  0.1-    150709 F51  0.0   0.0
    140521 F51  0.1-  0.1+    140725 F51  0.3-  0.1-    150712 F51  0.0   0.0
    140521 F51  0.1-  0.0     140725 F51  0.3-  0.2+    150712 F51  0.0   0.0
    140521 F51  0.1+  0.2+    140822 F51  0.2+  0.2-    150712 F51  0.0   0.0
    140521 F51  0.0   0.1+    140822 F51  0.0   0.2-    150712 F51  0.2+  0.0
    140528 F51  0.1+  0.2+    140822 F51  0.3+  0.1-    150713 F51  0.1-  0.2+
    140528 F51  0.0   0.2+    140822 F51  0.2+  0.0     150713 F51  0.1+  0.1-
    140528 F51  0.0   0.1+    150520 F51  0.2-  0.2-    150713 F51  0.1+  0.3+
    140528 F51  0.1+  0.1+    150520 F51  0.0   0.2+    150714 F51  0.0   0.1+
    140628 F51  0.1+  0.2-    150520 F51  0.2+  0.3-    150714 F51  0.0   0.0
    140628 F51  0.1+  0.1-    150520 F51  0.0   0.0     150714 F51  0.1+  0.0
    140628 F51  0.1-  0.1-    150709 F51  0.0   0.0
    
    Ephemeris:
    2014 KT101               a,e,i = 42.29, 0.25, 10                 q = 31.882
    Date    TT    R. A. (2000) Decl.     Delta      r     Elong.  Phase     V
    2016 06 17    16 46 04.6 -23 38 49  31.2208 32.2116   167.0     0.4    21.8
    ...
    2016 07 02    16 44 34.6 -23 36 55  31.3038 32.2084   152.4     0.8    21.9
    ...
    2016 07 10    16 43 52.2 -23 35 59  31.3723 32.2067   144.6     1.0    21.9
    ...
    2016 07 16    16 43 23.8 -23 35 21  31.4336 32.2055   138.8     1.2    21.9
    2016 07 17    16 43 19.4 -23 35 15  31.4447 32.2052   137.8     1.2    21.9
    2016 07 18    16 43 15.1 -23 35 09  31.4559 32.2050   136.9     1.2    21.9
    ...
    2016 07 24    16 42 51.2 -23 34 38  31.5275 32.2038   131.1     1.4    21.9
    ...
    2016 08 01    16 42 25.3 -23 34 05  31.6335 32.2021   123.3     1.5    21.9
    ...
    2016 08 16    16 41 57.1 -23 33 35  31.8579 32.1989   108.8     1.7    22.0
    
    A. U. Tomatic                (C) Copyright 2016 MPC           M.P.E.C. 2016-O85
    

    Read MPEC 2016-O84 Read MPEC 2016-O86


    MPEC number:

    Enter an MPEC number in one of the following forms:

    • 1997-B01 (the full form)
    • J97B01 (the packed version of the full form)
    • B01 (the abbreviated form)